Weather History for Casa Grande, AZ

Change the Weather History Date:

Monday, January 7, 2013

  Actual Average Record
Temperature  
Mean Temperature 44 °F -  
Max Temperature 55 °F 62 °F 75 °F (2006)
Min Temperature 33 °F 37 °F 28 °F (2007)
Degree Days  
Heating Degree Days 21    
Moisture  
Dew Point 24 °F    
Average Humidity 48    
Maximum Humidity 65    
Minimum Humidity 31    
Precipitation  
Precipitation 0.00 in - - ()
Sea Level Pressure  
Sea Level Pressure 29.92 in    
Wind  
Wind Speed 2 mph (WNW)    
Max Wind Speed 12 mph    
Max Gust Speed -    
Visibility 10 miles    
Events      
Averages and records for this station are not official NWS values.
T = Trace of Precipitation, MM = Missing Value Source: NWS Daily Summary

Daily Weather History Graph

Daily Weather History Graph

Search for Another Location

Airport:

Trip Planner

Search our weather history database for the weather conditions in past years. The results will help you decide how hot, cold, wet, or windy it might be!

Date:

Astronomy

Jan. 07, 2013 Rise Set
Actual Time 7:30 AM MST 5:36 PM MST
Civil Twilight 7:03 AM MST 6:03 PM MST
Nautical Twilight 6:33 AM MST 6:34 PM MST
Astronomical Twilight 6:03 AM MST 7:04 PM MST
Moon 3:02 AM MST (1/7) 1:48 PM MST (1/7)
Length of Visible Light 11h 00m
Length of Day
10h 05m
Waning Crescent, 22% of the Moon is Illuminated
Jan 7
Waning Crescent
Jan 11
New
Jan 18
First Quarter
Jan 26
Full
Feb 3
Last Quarter

Hourly Weather History & Observations

Time (MST) Temp. Windchill Dew Point Humidity Pressure Visibility Wind Dir Wind Speed Gust Speed Precip Events Conditions
12:15 AM 37.4 °F - 21.2 °F 52% 29.94 in 10.0 mi Calm Calm - N/A   Clear
12:35 AM 42.8 °F - 21.2 °F 42% 29.94 in 10.0 mi Calm Calm - N/A   Clear
12:55 AM 41.0 °F - 21.2 °F 45% 29.94 in 10.0 mi Calm Calm - N/A   Clear
1:15 AM 41.0 °F - 23.0 °F 49% 29.94 in 10.0 mi Calm Calm - N/A   Clear
1:35 AM 42.8 °F - 23.0 °F 46% 29.94 in 10.0 mi Calm Calm - N/A   Clear
1:55 AM 39.2 °F - 23.0 °F 52% 29.94 in 10.0 mi Calm Calm - N/A   Clear
2:15 AM 39.2 °F 35.9 °F 21.2 °F 49% 29.94 in 10.0 mi North 4.6 mph - N/A   Clear
2:35 AM 39.2 °F - 23.0 °F 52% 29.93 in 10.0 mi Calm Calm - N/A   Clear
2:55 AM 37.4 °F - 21.2 °F 52% 29.93 in 10.0 mi Calm Calm - N/A   Clear
3:15 AM 37.4 °F - 21.2 °F 52% 29.93 in 10.0 mi Calm Calm - N/A   Clear
3:35 AM 37.4 °F - 21.2 °F 52% 29.93 in 10.0 mi Calm Calm - N/A   Clear
3:55 AM 33.8 °F - 21.2 °F 60% 29.93 in 10.0 mi Calm Calm - N/A   Clear
4:15 AM 33.8 °F 30.8 °F 21.2 °F 60% 29.92 in 10.0 mi NNE 3.5 mph - N/A   Clear
4:35 AM 33.8 °F 30.8 °F 21.2 °F 60% 29.91 in 10.0 mi North 3.5 mph - N/A   Clear
4:55 AM 33.8 °F - 21.2 °F 60% 29.91 in 10.0 mi Calm Calm - N/A   Clear
5:35 AM 35.6 °F - 21.2 °F 56% 29.91 in 10.0 mi Calm Calm - N/A   Clear
5:55 AM 33.8 °F - 21.2 °F 60% 29.91 in 10.0 mi Calm Calm - N/A   Clear
6:15 AM 33.8 °F - 23.0 °F 65% 29.91 in 10.0 mi Calm Calm - N/A   Clear
6:35 AM 33.8 °F 30.8 °F 23.0 °F 65% 29.92 in 10.0 mi NE 3.5 mph - N/A   Clear
6:55 AM 33.8 °F - 21.2 °F 60% 29.92 in 10.0 mi Calm Calm - N/A   Clear
7:15 AM 33.8 °F 29.6 °F 21.2 °F 60% 29.92 in 10.0 mi NE 4.6 mph - N/A   Clear
7:35 AM 33.8 °F 29.6 °F 21.2 °F 60% 29.93 in 10.0 mi NE 4.6 mph - N/A   Clear
7:55 AM 33.8 °F - 23.0 °F 65% 29.93 in 10.0 mi Calm Calm - N/A   Clear
8:15 AM 35.6 °F - 23.0 °F 60% 29.94 in 10.0 mi Calm Calm - N/A   Clear
8:35 AM 37.4 °F - 24.8 °F 60% 29.94 in 10.0 mi Calm Calm - N/A   Clear
8:55 AM 39.2 °F - 24.8 °F 56% 29.94 in 10.0 mi Calm Calm - N/A   Clear
9:15 AM 39.2 °F - 24.8 °F 56% 29.95 in 10.0 mi Calm Calm - N/A   Clear
9:35 AM 42.8 °F - 24.8 °F 49% 29.95 in 10.0 mi Calm Calm - N/A   Clear
9:55 AM 44.6 °F - 24.8 °F 46% 29.95 in 10.0 mi Calm Calm - N/A   Clear
10:15 AM 46.4 °F - 26.6 °F 46% 29.96 in 10.0 mi Calm Calm - N/A   Clear
10:35 AM 46.4 °F - 26.6 °F 46% 29.96 in 10.0 mi Calm Calm - N/A   Clear
10:55 AM 46.4 °F - 28.4 °F 50% 29.96 in 10.0 mi Calm Calm - N/A   Clear
11:15 AM 48.2 °F - 26.6 °F 43% 29.95 in 10.0 mi Calm Calm - N/A   Clear
11:35 AM 50.0 °F - 26.6 °F 40% 29.94 in 10.0 mi Calm Calm - N/A   Clear
11:55 AM 50.0 °F - 26.6 °F 40% 29.93 in 10.0 mi Calm Calm - N/A   Clear
12:15 PM 50.0 °F - 26.6 °F 40% 29.92 in 10.0 mi West 5.8 mph - N/A   Clear
12:35 PM 51.8 °F - 26.6 °F 38% 29.91 in 10.0 mi West 6.9 mph - N/A   Clear
12:55 PM 51.8 °F - 26.6 °F 38% 29.89 in 10.0 mi WNW 8.1 mph - N/A   Clear
1:15 PM 51.8 °F - 28.4 °F 41% 29.88 in 10.0 mi West 6.9 mph - N/A   Clear
1:55 PM 53.6 °F - 28.4 °F 38% 29.88 in 10.0 mi NW 5.8 mph - N/A   Clear
2:15 PM 53.6 °F - 28.4 °F 38% 29.87 in 10.0 mi NW 6.9 mph - N/A   Clear
2:35 PM 55.4 °F - 28.4 °F 36% 29.87 in 10.0 mi NW 8.1 mph - N/A   Clear
2:55 PM 55.4 °F - 26.6 °F 33% 29.87 in 10.0 mi WNW 5.8 mph - N/A   Clear
3:15 PM 55.4 °F - 26.6 °F 33% 29.87 in 10.0 mi WNW 8.1 mph - N/A   Clear
3:35 PM 55.4 °F - 24.8 °F 31% 29.87 in 10.0 mi West 8.1 mph - N/A   Clear
4:15 PM 55.4 °F - 26.6 °F 33% 29.88 in 10.0 mi West 9.2 mph - N/A   Clear
4:35 PM 55.4 °F - 24.8 °F 31% 29.88 in 10.0 mi West 11.5 mph - N/A   Clear
4:55 PM 55.4 °F - 24.8 °F 31% 29.88 in 10.0 mi West 8.1 mph - N/A   Clear
5:15 PM 53.6 °F - 26.6 °F 35% 29.89 in 10.0 mi West 8.1 mph - N/A   Clear
5:35 PM 53.6 °F - 26.6 °F 35% 29.90 in 10.0 mi West 9.2 mph - N/A   Clear
5:55 PM 51.8 °F - 26.6 °F 38% 29.90 in 10.0 mi WNW 4.6 mph - N/A   Clear
6:15 PM 50.0 °F - 26.6 °F 40% 29.91 in 10.0 mi WNW 4.6 mph - N/A   Clear
6:35 PM 48.2 °F - 24.8 °F 40% 29.91 in 10.0 mi Calm Calm - N/A   Clear
6:55 PM 48.2 °F - 26.6 °F 43% 29.91 in 10.0 mi West 3.5 mph - N/A   Clear
7:15 PM 46.4 °F 43.5 °F 24.8 °F 43% 29.91 in 10.0 mi West 5.8 mph - N/A   Clear
7:35 PM 46.4 °F 42.4 °F 24.8 °F 43% 29.91 in 10.0 mi West 8.1 mph - N/A   Clear
7:55 PM 46.4 °F 42.9 °F 24.8 °F 43% 29.91 in 10.0 mi West 6.9 mph - N/A   Clear
8:35 PM 44.6 °F 42.2 °F 24.8 °F 46% 29.91 in 10.0 mi WNW 4.6 mph - N/A   Clear
8:55 PM 46.4 °F 42.9 °F 24.8 °F 43% 29.92 in 10.0 mi WNW 6.9 mph - N/A   Clear
9:15 PM 46.4 °F 42.4 °F 24.8 °F 43% 29.91 in 10.0 mi West 8.1 mph - N/A   Clear
9:35 PM 41.0 °F - 21.2 °F 45% 29.91 in 10.0 mi Calm Calm - N/A   Clear
9:55 PM 41.0 °F - 24.8 °F 53% 29.91 in 10.0 mi Calm Calm - N/A   Clear
10:15 PM 42.8 °F - 24.8 °F 49% 29.91 in 10.0 mi Calm Calm - N/A   Clear
10:35 PM 39.2 °F - 23.0 °F 52% 29.91 in 10.0 mi Calm Calm - N/A   Clear
10:55 PM 39.2 °F 37.0 °F 23.0 °F 52% 29.91 in 10.0 mi NE 3.5 mph - N/A   Clear
11:15 PM 39.2 °F - 24.8 °F 56% 29.91 in 10.0 mi Calm Calm - N/A   Clear
11:55 PM 37.4 °F - 24.8 °F 60% 29.90 in 10.0 mi Calm Calm - N/A   Clear